www.pogodaiklimat.ru

АРХИВ ПОГОДЫ в Berlin

Время (UTC), дата Ветер
(напр.,м/с)
 
Видим.   Явления Облачность Т
(С)
Тd
(С)
f
(%)
Тe
(С)
Тes
(С)
Комфортность P
(гПа)
Po
(гПа)
Тmin
(С)
Tmax
(С)
R
(мм)
S
(см)
06 16.01 С 4 н/о н/о -2.9 -4.8 87 -9 -9 прохладно 1023.1 1016.8 -3.2 +0.1 0.1
07 16.01 СЗ 2-3
{6}
н/о н/о -4.5 -5.9 90 -9 -9 тепло 1023.5 1017.2
08 16.01 СЗ 4-5
{5}
н/о н/о -3.8 -5.0 91 -10 -10 по сезону 1024.3 1018.0
09 16.01 СЗ 3 н/о н/о -3.1 -4.4 91 -8 -8 прохладно 1025.0 1018.7
10 16.01 С 2-3
{4}
н/о н/о -2.4 -3.9 89 -6 -6 тепло 1025.2 1018.9
11 16.01 С 4-5
{5}
н/о н/о -1.8 -3.7 87 -8 -8 по сезону 1025.4 1019.1
12 16.01 СЗ 4-6
{6}
н/о н/о -1.4 -3.5 86 -7 -7 прохладно 1025.6 1019.3
13 16.01 С 3-4
{7}
н/о н/о -1.2 -3.4 85 -6 -6 тепло 1025.8 1019.5
14 16.01 СЗ 4-5
{5}
н/о н/о -1.6 -3.9 84 -7 -7 по сезону 1026.0 1019.7
15 16.01 СЗ 4-6
{7}
н/о н/о -1.1 -3.4 84 -7 -7 прохладно 1026.7 1020.4
16 16.01 СЗ 3-4
{5}
н/о н/о -1.1 -3.2 86 -6 -6 тепло 1027.2 1020.9
17 16.01 СЗ 5-6
{6}
н/о н/о -1.2 -3.7 83 -8 -8 по сезону 1027.7 1021.4
18 16.01 С 3 н/о н/о -2.0 -4.4 84 -7 -7 прохладно 1028.4 1022.1 -5.3 -0.9
19 16.01 С 3-5
{5}
н/о н/о -1.6 -4.1 83 -7 -7 тепло 1029.1 1022.8
20 16.01 С 3-4
{6}
н/о н/о -1.0 -4.2 79 -6 -6 по сезону 1029.7 1023.4
21 16.01 СЗ 3-4
{6}
н/о н/о -1.3 -4.0 82 -6 -6 по сезону 1030.3 1024.0
22 16.01 С 3-3
{5}
н/о н/о -1.6 -3.6 86 -7 -7 тепло 1030.8 1024.5
23 16.01 СЗ 2-3
{5}
н/о н/о -2.2 -3.9 88 -6 -6 по сезону 1031.1 1024.8
00 17.01 С 1 н/о н/о -3.1 -4.4 91 -5 -5 по сезону 1031.7 1025.3
01 17.01 СЗ 3-4
{4}
н/о н/о -3.7 -5.0 91 -9 -9 тепло 1032.1 1025.7
02 17.01 СЗ 3-4
{5}
н/о н/о -3.8 -4.9 92 -9 -9 по сезону 1032.7 1026.3
03 17.01 СЗ 1-1
{5}
н/о н/о -3.5 -4.6 92 -6 -6 по сезону 1033.1 1026.7
04 17.01 С 2-2
{2}
н/о н/о -4.4 -5.7 91 -9 -9 тепло 1033.4 1027.0
05 17.01 С 1-2
{3}
н/о н/о -5.6 -6.6 93 -8 -8 по сезону 1033.8 1027.4
06 17.01 С 2 н/о н/о -5.3 -6.5 91 -10 -10 прохладно 1034.4 1028.0 -5.8 -1.0
07 17.01 СВ 1-1
{3}
н/о н/о -5.0 -5.9 93 -7 -7 тепло 1035.2 1028.8
08 17.01 С 1-2
{2}
н/о н/о -4.9 -5.5 96 -7 -7 по сезону 1035.8 1029.4
09 17.01 СЗ 1 н/о н/о -2.6 -3.8 91 -5 -5 по сезону 1036.3 1029.9
10 17.01 С 1-2
{3}
н/о н/о -1.2 -4.2 80 -3 -3 тепло 1036.7 1030.4
11 17.01 СЗ 1-2
{2}
н/о н/о 0.0 -3.9 75 -2 -2 тепло 1037.1 1030.8
12 17.01 СЗ 1-2
{3}
н/о н/о +0.2 -3.6 76 -2 -2 по сезону 1037.0 1030.7
13 17.01 СЗ 2-3
{3}
н/о н/о +0.9 -3.7 71 -2 -2 тепло 1037.2 1030.9
14 17.01 СЗ 3-4
{4}
н/о н/о +0.8 -3.6 72 -3 -3 по сезону 1037.6 1031.3
15 17.01 С 3-4
{4}
н/о н/о -0.2 -4.7 72 -5 -5 по сезону 1037.9 1031.6
16 17.01 С 2-3
{4}
н/о н/о -0.9 -4.6 76 -4 -4 тепло 1038.2 1031.9
17 17.01 С 2-2
{3}
н/о н/о -1.0 -4.0 80 -5 -5 по сезону 1038.6 1032.2
18 17.01 СВ 1 н/о н/о -1.8 -4.5 82 -4 -4 по сезону 1039.2 1032.8 -5.5 +1.0
19 17.01 С 2-2
{2}
н/о н/о -3.6 -5.5 87 -8 -8 тепло 1039.6 1033.2
20 17.01 СВ 1-1
{2}
н/о н/о -3.3 -5.0 88 -6 -6 по сезону 1039.8 1033.4
21 17.01 ЮЗ 1-1
{2}
н/о н/о -4.4 -5.5 92 -7 -7 прохладно 1040.2 1033.8
22 17.01 ЮЗ 1-1
{2}
н/о н/о -5.4 -6.6 91 -8 -8 тепло 1040.3 1033.8
23 17.01 З 2-2
{2}
н/о н/о -5.5 -6.2 95 -10 -10 по сезону 1040.3 1033.8
00 18.01 СЗ 1 н/о н/о -4.9 -5.9 93 -7 -7 по сезону 1040.4 1033.9
01 18.01 Ю 1-2
{2}
н/о н/о -4.0 -5.1 92 -6 -6 тепло 1040.7 1034.3
02 18.01 Ю 2-4
{4}
н/о н/о -5.4 -6.9 89 -10 -10 по сезону 1041.3 1034.8
03 18.01 ЮЗ 1-2
{4}
н/о н/о -6.2 -7.6 90 -9 -9 прохладно 1040.9 1034.4
04 18.01 ЮЗ 2-3
{4}
н/о н/о -5.3 -5.9 96 -10 -10 тепло 1040.9 1034.4
05 18.01 З 2-3
{4}
н/о н/о -5.0 -5.6 96 -9 -9 по сезону 1041.0 1034.5
06 18.01 З 2 н/о н/о -4.9 -5.7 94 -9 -9 прохладно 1041.0 1034.5 -6.2 -1.7
07 18.01 ЮЗ 2-2
{3}
н/о н/о -5.0 -5.9 93 -9 -9 тепло 1041.6 1035.1
08 18.01 Ю 2-4
{4}
н/о н/о -4.9 -5.9 93 -9 -9 по сезону 1042.0 1035.5
09 18.01 ЮЗ 2 н/о н/о -4.8 -5.8 93 -9 -9 холодно 1042.3 1035.8
10 18.01 ЮЗ 2-3
{3}
н/о н/о -4.2 -5.1 93 -9 -9 по сезону 1042.6 1036.1
11 18.01 ЮЗ 2-3
{4}
н/о н/о -3.9 -4.9 93 -8 -8 по сезону 1042.2 1035.8
12 18.01 ЮЗ 2-3
{5}
н/о н/о -3.6 -4.7 92 -8 -8 холодно 1042.0 1035.6
13 18.01 ЮЗ 1-2
{4}
н/о н/о -3.4 -4.7 91 -6 -6 по сезону 1041.7 1035.3

 

Местоположение метеостанции Berlin (Германия): широта 52.47 долгота 13.40 высота над уровнем моря 50 м.

В архиве по умолчанию представлена погода в Berlin за последнюю неделю. Архивные данные за месяц целиком и за предыдущие месяцы, начиная с января 2011 года, Вы можете получить, выбрав интересующий диапазон дат из раскрывающегося списка и нажав кнопку "Ввод!".

Внимание! Время в таблицах - всемирное. Для получения местного времени необходимо прибавить поправку, которая в Berlin равна 1 ч.

Ветер - указаны скорость ветра в м/с - средняя за 10 мин, порывы в срок и между сроками (в фигурных скобках) и направление, откуда дует ветер: С - северный, СВ - северо-восточный, В - восточный, ЮВ - юго-восточный, Ю - южный, ЮЗ - юго-западный, З - западный, СЗ - северо-западный.
Видимость - горизонтальная дальность видимости в метрах или километрах. При видимости от 1 до 10 км при отсутствии осадков обычно наблюдается дымка, при ухудшении видимости до 1 км и менее - туман. В сухую погоду видимость может ухудшаться дымом, пылью или мглою.
Явления - указаны атмосферные явления, наблюдавшиеся в срок или в последний час перед сроком; фигурными скобками обозначены явления, наблюдавшиеся между сроками (за 1-3 часа до срока); квадратными скобками обозначены град или гололедные отложения с указанием их диаметра в мм.
Облачность - указаны через наклонную черту общая и нижняя облачность в баллах и высота нижней границы облаков в метрах; квадратными скобками обозначены формы облаков: Ci - перистые, Cs - перисто-слоистые, Cc - перисто-кучевые, Ac - высококучевые, As - высокослоистые, Sc - слоисто-кучевые, Ns - слоисто-дождевые, Cu - кучевые, Cb - кучево-дождевые. Подробнее классификацию облаков см. в Атласе облаков (PDF).
T - Температура воздуха - температура, измеренная на высоте 2 м над землей.
Td - Температура точки росы - температура, при понижении до которой содержащийся в воздухе водяной пар достигнет насыщения.
f - Относительная влажность воздуха - влажноcть воздуха, измеренная на высоте 2 м над землей.
Te - Эффективная температура - температура, которую ощущает одетый по сезону человек в тени. Характеристика душности погоды. При расчете учитывается влияние влажности воздуха и скорости ветра на теплоощущения человека.
Tes - Эффективная температура на солнце - температура, которую ощущает человек, с поправкой на солнечный нагрев. Характеристика знойности погоды. Зависит от высоты солнца над горизонтом, облачности и скорости ветра. Ночью, в пасмурную погоду, а также при ветре 12 м/с и более поправка равна нулю.
P - Атмосферное давление - приведенное к уровню моря атмосферное давление.
Po - Атмосферное давление - измеренное на уровне метеостанции атмосферное давление.
Tmin - Минимальная температура - минимум температуры воздуха на высоте 2 м над землей.
Tmax - Максимальная температура - максимум температуры воздуха на высоте 2 м над землей.
R - Количество осадков - Количество выпавших осадков, мм. При наведении курсора мыши на число - период времени, за который выпало указанное количество осадков.
S - Снежный покров - Высота снежного покрова, см. При наведении курсора мыши на число - состояние снежного покрова и степень покрытия местности в баллах.